Cuero, Texas, United States (77954)
Lat: 29.09N, Lon: 97.29W
Wx Zone: TXZ224
Local Info
Past Weather Observations for Today

NOTE: This archive is for the closest National Weather Service station to Cuero. Information may differ from the station used for current weather conditions.

Click here for Long-term Archive

Time Weather Temperature Dewpoint Humidity Pressure Winds Precip Visibility
21:51
Clear
77°F / 25°C 70°F / 21°C 79% 30.04 in
(1017 mb)
SE 5.8 mph
(SE 9 kph)
- 10SM
20:51
Clear
79°F / 26°C 70°F / 21°C 74% 30.04 in
(1017 mb)
SE 4.6 mph
(SE 7 kph)
- 10SM
19:51
Clear
79°F / 26°C 70°F / 21°C 74% 30.04 in
(1017 mb)
ESE 4.6 mph
(ESE 7 kph)
- 10SM
18:51
Clear
81°F / 27°C 72°F / 22°C 74% 30.01 in
(1016 mb)
E 6.9 mph
(E 11 kph)
- 10SM
17:51
Clear
88°F / 31°C 70°F / 21°C 55% 29.98 in
(1015 mb)
E 10.4 mph
(E 17 kph)
- 10SM
16:51
Partly Cloudy
90°F / 32°C 70°F / 21°C 52% 29.95 in
(1014 mb)
ENE 12.7 mph
(ENE 20 kph)
- 10SM
15:51
Clear
91°F / 33°C 72°F / 22°C 52% 29.95 in
(1014 mb)
E 11.5 mph
(E 19 kph)
- 10SM
14:51
Clear
91°F / 33°C 68°F / 20°C 46% 29.98 in
(1015 mb)
ENE 11.5 mph
(ENE 19 kph)
- 10SM
13:51
Partly Cloudy
90°F / 32°C 72°F / 22°C 55% 29.98 in
(1015 mb)
ENE 13.8 mph
(ENE 22 kph)
- 10SM
12:51
Partly Cloudy
91°F / 33°C 72°F / 22°C 52% 30.01 in
(1016 mb)
ENE 9.2 mph
(ENE 15 kph)
- 10SM
11:51
Partly Cloudy
90°F / 32°C 72°F / 22°C 55% 30.04 in
(1017 mb)
E 13.8 mph
(E 22 kph)
- 10SM
10:51
Partly Cloudy
88°F / 31°C 73°F / 23°C 62% 30.06 in
(1018 mb)
ENE 12.7 mph
(ENE 20 kph)
- 10SM
09:51
Partly Cloudy
86°F / 30°C 73°F / 23°C 66% 30.04 in
(1017 mb)
ENE 15 mph
(ENE 24 kph)
- 10SM
08:51
Clear
82°F / 28°C 75°F / 24°C 79% 30.04 in
(1017 mb)
ENE 13.8 mph
(ENE 22 kph)
- 10SM
07:51
Clear
81°F / 27°C 77°F / 25°C 89% 30.04 in
(1017 mb)
NE 11.5 mph
(NE 19 kph)
- 9SM
06:51
Clear
Fog And Mist
77°F / 25°C 75°F / 24°C 94% 30.01 in
(1016 mb)
NE 9.2 mph
(NE 15 kph)
- 6SM
05:51
Clear
75°F / 24°C 75°F / 24°C 100% 29.98 in
(1015 mb)
NE 8.1 mph
(NE 13 kph)
- 7SM
04:51
Clear
75°F / 24°C 75°F / 24°C 100% 29.98 in
(1015 mb)
NE 9.2 mph
(NE 15 kph)
- 8SM
03:51
Partly Cloudy
77°F / 25°C 75°F / 24°C 94% 29.95 in
(1014 mb)
NE 8.1 mph
(NE 13 kph)
- 8SM
02:51
Clear
77°F / 25°C 75°F / 24°C 94% 29.95 in
(1014 mb)
NE 6.9 mph
(NE 11 kph)
- 7SM
01:51
Clear
77°F / 25°C 75°F / 24°C 94% 29.95 in
(1014 mb)
NE 6.9 mph
(NE 11 kph)
- 8SM
00:51
Clear
79°F / 26°C 75°F / 24°C 89% 29.95 in
(1014 mb)
NE 5.8 mph
(NE 9 kph)
- 8SM
Time Weather Temperature Dewpoint Humidity Pressure Winds Precip Visibility


Weather for websites

WeatherForYou.com, LLC is not responsible for any damages or problems caused by this service. Current weather conditions are obtained from the closest station including government and personal stations which may have varying degrees of accuracy. Weather forecasts are derived from the NOAA NDFD. Like all things, this site belongs to Jesus Christ... He just trusts me to maintain it. If you have any questions or comments email webmaster@weatherforyou.com

Copyright © 2014, WeatherForYou.com LLC. All rights reserved.